DRAGON ZZZZ-ETNS

Flight info

Callsign DRAGON
Flight time N/A
Altitude 3500
Route DCT 5332N00753E DCT NDO DCT SWG DCT
Aircraft TOR/M-HITUVZ/S

Departure

Time N/A
Airport ZZZZ

Arrival

Time 2026-04-17 19:22
Airport Schleswig Air Base (ETNS)
Time Latitude Longitude Altitude Speed Heading
2026-04-17 18:31 53.53563 7.88857 25 ft 0 kts 246°
2026-04-17 19:02 53.53563 7.88856 25 ft 0 kts 247°
2026-04-17 19:02 53.53563 7.88854 25 ft 1 kts 247°
2026-04-17 19:03 53.53555 7.88777 23 ft 11 kts 272°
2026-04-17 19:03 53.53558 7.88678 23 ft 7 kts 260°
2026-04-17 19:03 53.53564 7.88533 21 ft 17 kts 278°
2026-04-17 19:03 53.53592 7.88278 17 ft 25 kts 283°
2026-04-17 19:04 53.53629 7.88003 17 ft 23 kts 282°
2026-04-17 19:04 53.53661 7.87736 17 ft 22 kts 281°
2026-04-17 19:04 53.53691 7.87469 17 ft 23 kts 281°
2026-04-17 19:04 53.53700 7.87282 16 ft 14 kts 230°
2026-04-17 19:05 53.53642 7.87199 17 ft 5 kts 219°
2026-04-17 19:05 53.53621 7.87170 17 ft 0 kts 220°
2026-04-17 19:05 53.53595 7.87134 16 ft 11 kts 207°
2026-04-17 19:06 53.53561 7.87188 17 ft 7 kts 102°
2026-04-17 19:06 53.53435 7.88194 18 ft 170 kts 101°
2026-04-17 19:06 53.53080 7.91014 325 ft 306 kts 101°
2026-04-17 19:06 53.52604 7.94652 1077 ft 320 kts 102°
2026-04-17 19:07 53.52091 7.98269 1865 ft 317 kts 103°
2026-04-17 19:07 53.51820 8.01875 2762 ft 309 kts 86°
2026-04-17 19:07 53.51939 8.05405 3603 ft 305 kts 86°
2026-04-17 19:07 53.52040 8.08949 3741 ft 300 kts 87°
2026-04-17 19:08 53.52123 8.12461 3808 ft 300 kts 88°
2026-04-17 19:08 53.52150 8.15993 3831 ft 302 kts 91°
2026-04-17 19:08 53.52101 8.19569 3657 ft 313 kts 93°
2026-04-17 19:08 53.51979 8.23294 3335 ft 324 kts 95°
2026-04-17 19:09 53.51741 8.27038 3428 ft 319 kts 99°
2026-04-17 19:09 53.51448 8.30710 3554 ft 317 kts 97°
2026-04-17 19:09 53.51369 8.34361 3904 ft 305 kts 84°
2026-04-17 19:09 53.52038 8.37614 4411 ft 291 kts 57°
2026-04-17 19:10 53.53330 8.40283 4448 ft 294 kts 46°
2026-04-17 19:10 53.54814 8.42612 4478 ft 300 kts 39°
2026-04-17 19:10 53.56564 8.44877 4516 ft 327 kts 36°
2026-04-17 19:10 53.58433 8.47181 4920 ft 336 kts 36°
2026-04-17 19:11 53.60412 8.49461 5112 ft 355 kts 32°
2026-04-17 19:11 53.62558 8.51746 5191 ft 372 kts 32°
2026-04-17 19:11 53.64826 8.54102 5289 ft 384 kts 32°
2026-04-17 19:11 53.67011 8.56417 5555 ft 390 kts 31°
2026-04-17 19:12 53.69389 8.58883 5525 ft 403 kts 31°
2026-04-17 19:12 53.71831 8.61349 5390 ft 410 kts 30°
2026-04-17 19:12 53.74276 8.63819 5335 ft 411 kts 29°
2026-04-17 19:12 53.76810 8.66136 5364 ft 410 kts 28°
2026-04-17 19:13 53.79335 8.68453 5445 ft 409 kts 28°
2026-04-17 19:13 53.81872 8.70731 5433 ft 409 kts 27°
2026-04-17 19:13 53.84391 8.72891 5381 ft 411 kts 27°
2026-04-17 19:13 53.86964 8.75121 5397 ft 410 kts 26°
2026-04-17 19:14 53.89514 8.77133 5503 ft 408 kts 25°
2026-04-17 19:14 53.92173 8.79097 5450 ft 410 kts 22°
2026-04-17 19:14 53.94864 8.80851 5437 ft 410 kts 20°
2026-04-17 19:14 53.97533 8.82584 5541 ft 408 kts 22°
2026-04-17 19:15 54.00134 8.84425 5492 ft 410 kts 20°
2026-04-17 19:15 54.02845 8.86040 5413 ft 412 kts 18°
2026-04-17 19:15 54.05605 8.87599 5489 ft 410 kts 19°
2026-04-17 19:15 54.08292 8.89059 5586 ft 408 kts 17°
2026-04-17 19:16 54.10954 8.90405 5658 ft 407 kts 17°
2026-04-17 19:16 54.13696 8.91843 5460 ft 408 kts 17°
2026-04-17 19:16 54.16385 8.93301 4859 ft 403 kts 18°
2026-04-17 19:16 54.19009 8.94805 4305 ft 396 kts 20°
2026-04-17 19:17 54.21509 8.96646 3810 ft 385 kts 32°
2026-04-17 19:17 54.23502 8.99502 2987 ft 375 kts 52°
2026-04-17 19:17 54.25000 9.03078 2287 ft 363 kts 58°
2026-04-17 19:17 54.26283 9.06707 1984 ft 342 kts 61°
2026-04-17 19:18 54.27430 9.10149 1678 ft 326 kts 59°
2026-04-17 19:18 54.28595 9.13375 1439 ft 309 kts 56°
2026-04-17 19:18 54.29853 9.16272 1419 ft 300 kts 52°
2026-04-17 19:18 54.31146 9.19043 1520 ft 294 kts 52°
2026-04-17 19:19 54.32411 9.21784 1507 ft 288 kts 52°
2026-04-17 19:19 54.33651 9.24483 1381 ft 286 kts 52°
2026-04-17 19:19 54.34876 9.27168 1374 ft 286 kts 52°
2026-04-17 19:19 54.36051 9.29880 1349 ft 281 kts 53°
2026-04-17 19:20 54.37202 9.32558 1334 ft 277 kts 53°
2026-04-17 19:20 54.38326 9.35266 1281 ft 273 kts 56°
2026-04-17 19:20 54.39349 9.37970 1218 ft 270 kts 57°
2026-04-17 19:20 54.40374 9.40713 1070 ft 269 kts 54°
2026-04-17 19:21 54.41490 9.43258 847 ft 259 kts 48°
2026-04-17 19:21 54.42647 9.45466 502 ft 235 kts 47°
2026-04-17 19:21 54.43660 9.47386 311 ft 203 kts 46°
2026-04-17 19:21 54.44583 9.49103 190 ft 190 kts 46°
2026-04-17 19:22 54.45466 9.50756 70 ft 177 kts 47°
2026-04-17 19:22 54.46178 9.52105 66 ft 117 kts 47°
2026-04-17 19:22 54.46406 9.52532 63 ft 20 kts 46°
2026-04-17 19:22 54.46509 9.52721 63 ft 22 kts 47°
2026-04-17 19:23 54.46613 9.52925 63 ft 17 kts 66°
2026-04-17 19:23 54.46658 9.53300 63 ft 8 kts 80°
2026-04-17 19:23 54.46656 9.53381 64 ft 5 kts 149°
2026-04-17 19:24 54.46606 9.53383 64 ft 8 kts 180°
2026-04-17 19:24 54.46541 9.53383 65 ft 9 kts 180°
2026-04-17 19:24 54.46464 9.53382 66 ft 12 kts 180°
2026-04-17 19:24 54.46380 9.53382 66 ft 10 kts 178°
2026-04-17 19:25 54.46298 9.53382 66 ft 13 kts 182°
2026-04-17 19:25 54.46225 9.53376 66 ft 9 kts 186°
2026-04-17 19:25 54.46153 9.53345 66 ft 12 kts 201°
2026-04-17 19:25 54.46068 9.53273 66 ft 15 kts 209°
2026-04-17 19:26 54.45986 9.53163 66 ft 16 kts 193°
2026-04-17 19:26 54.45867 9.53087 66 ft 19 kts 213°
2026-04-17 19:26 54.45768 9.52929 66 ft 12 kts 224°
2026-04-17 19:26 54.45754 9.52903 66 ft 1 kts 234°
2026-04-17 19:27 54.45752 9.52868 66 ft 4 kts 279°
2026-04-17 19:27 54.45778 9.52810 66 ft 7 kts 314°
2026-04-17 19:27 54.45791 9.52775 66 ft 0 kts 290°